Showing default

QIANFAN-31, 61564

Orbit data source: Space-Track

QIANFAN-31, 61564 is a Chinese payload satellite in LEO that was launched on Tue, 15 Oct 2024 UTC via a CHANG ZHENG 6A launch vehicle from the Taiyaun Space Center, China (TSC). Payloads include a variety of satellites, spacecraft, and rockets equipped with specific instruments for various scientific and technological missions. These include communications satellites like Starlink; space stations such as the ISS; scientific satellites like the Hubble; Earth observation satellites from companies like Planet Labs, Umbra, and HawkEye 360; GPS; miniature CubeSats for education and research; and military/defense satellites.

Loading next visibility...
QIANFAN-31 details
Identifier
61564, 2024-185N
Orbit
LEO
Last TLE update15 hours ago
Origin
Flag of CNYUANX (CN / PRC)
ManufacturerGESIH/SECM
MissionOperational Commercial Communications
Bus & MotorQIANFAN, Unknown motor
Mass300 kg wet, ~300 kg dry
Launch date (UTC)
2024-10-15 (4 months ago)
Launch vehicle
CHANG ZHENG 6A
Launch site
Taiyaun Space Center, China (TSC)
Object type
Payload
Rocket body
Debris
Shape & HBRBox + 1 Pan, 10 m
Radar Cross Section13.200 m², Large (>1 m²)

Expand to show TLE details & history

TLE from 15 hours ago
0 QIANFAN-31
1 61564U 24185N   25046.88637947  .00000333  00000-0  21001-3 0  9997
2 61564  88.9863 112.2024 0007255 174.6360 185.4899 14.01834545 27316
Epoch: 2025-02-15T21:16Z
Definitive object data (Epoch: 2025-02-15T21:16:23.186Z)
Latitude
Longitude6.97843°
Altitude895.724 km
Speed7.402 km/s
True Right ascension07h 28m 48s
True Declination0° 00' 00"
Sunlit
Object was in full shadow at TLE epoch
Visualization TLE readout
Latitude-22.61153°
Longitude6.48723°
Altitude901.128 km
Speed7.398 km/s
Apparent Right ascension05h 45m 28s
Apparent Declination-34° 19' 16"
Sunlit
Object is in full shadow
Visualization observer readout
Local Sidereal Time15:21:35
Azimuth269.579° W
Elevation-60.979°
Doppler factor1
Orbital elements
Apogee altitude889.696 km
Perigee altitude879.158 km
Semi-major axis7,262.564 km
Eccentricity0.0007255
Inclination88.9863°
RAAN112.2024°
Arg. of periapsis174.636°
True anomaly185.48195°
Mean anomaly185.4899°
Eccentric anomaly185.48593°
Mean motion3.50678 °/min
BSTAR0.00021001
Orbital period102.66 mins
Loading maneuver chart data...
Loading historical data...
Loading historical data...
Loading historical data...
Loading historical data...
Loading historical data...
Loading historical data...
Loading historical data...

QIANFAN-31 Visibility forecast

Observer location: undefined°, undefined

Span
Click to sort rows by Start time (UTC) header in descending order
Start Az.
Max El. time (UTC)
Max El. Az.
Max El.
End time (UTC)
End Az.
5 mins2025-02-16 15:01:02.040Z48.048° ENE2025-02-16 15:04:02.040Z80.246° E13.062°2025-02-16 15:06:02.040Z101.589° ESE
9 mins2025-02-16 16:43:02.040Z355.509° N2025-02-16 16:47:02.040Z268.091° W44.101°2025-02-16 16:52:02.040Z189.489° SSW
9 mins2025-02-17 04:14:02.040Z155.471° SSE2025-02-17 04:18:02.040Z83.515° E39.503°2025-02-17 04:23:02.040Z9.607° NNE
5 mins2025-02-17 05:59:02.040Z255.26° W2025-02-17 06:01:02.040Z280.646° WNW17.973°2025-02-17 06:04:02.040Z316.602° NNW
|